ROMMA est une association bénévole à but non lucratif. Votre soutien est indispensable : ADHERER à ROMMA ou FAIRE un DON

Val-d'Isère - (73, Savoie)

Haute-Maurienne (1850 m)   Longitude: 6° 58' 52'' E   Latitude: 45° 26' 53'' N Station partenaire n°93
 

Détail journalier du     <<     >>

Température Precipitation Humidité Vent Dir Rafale Dir. rafale Ensol.
Heure (°C) (mm) (%) (km/h) (km/h) (min)
01:00 4.10766E29NO0
02:00 4.70717NE31N0
03:00 4.50716SE31NNO0
04:00 4.20736S32NNO0
05:00 4.20716NE26NNO0
06:00 3.40739OSO31NO0
07:00 3.80696NO35ONO0
08:00 3.80686ENE26NO0
09:00 4.90628NO26NO30
10:00 5.60598NO31NO60
11:00 5.106318NO42N60
12:00 4.906521NO42NO60
13:00 5.905820NO40NNO30
14:00 6.005515NO34NO30
15:00 6.905115NO34NNO0
16:00 8.304311NO32NO60
17:00 8.30478E19NO60
18:00 7.70467ESE16SE30
19:00 6.40517ESE16ESE0
20:00 5.40558ESE15ESE0
21:00 4.70587E15ESE0
22:00 3.90604E11E0
23:00 3.40625ENE15E0
minuit 2.70632E13E0

Graphique du 19-04-2019

 

Serveur OMMA